Time,TemperatureF,DewpointF,PressureIn,WindDirection,WindDirectionDegrees,WindSpeedMPH,WindSpeedGustMPH,Humidity,HourlyPrecipIn,Conditions,Clouds,dailyrainin,SoftwareType,DateUTC
2013-02-25 02:35:00,27.0,25.5,30.09,ENE,77,0.0,4.0,94,0.00,,,0.00,Wunderground v.1.15,2013-02-25 07:35:00,
2013-02-25 02:40:00,27.2,25.7,30.09,ENE,77,1.0,1.0,94,0.00,,,0.00,Wunderground v.1.15,2013-02-25 07:40:00,
2013-02-25 02:46:00,27.2,25.7,30.09,ENE,77,0.0,1.0,94,0.00,,,0.00,Wunderground v.1.15,2013-02-25 07:46:00,
2013-02-25 02:51:00,27.1,25.6,30.09,ENE,77,0.0,0.0,94,0.00,,,0.00,Wunderground v.1.15,2013-02-25 07:51:00,
2013-02-25 02:55:00,27.0,25.5,30.09,ENE,77,0.0,1.0,94,0.00,,,0.00,Wunderground v.1.15,2013-02-25 07:55:00,
2013-02-25 03:00:00,26.9,25.4,30.09,ENE,77,1.0,1.0,94,0.00,,,0.00,Wunderground v.1.15,2013-02-25 08:00:00,
2013-02-25 03:05:00,26.9,25.4,30.09,ENE,77,1.0,1.0,94,0.00,,,0.00,Wunderground v.1.15,2013-02-25 08:05:00,
2013-02-25 03:10:00,26.9,25.4,30.09,ENE,77,1.0,1.0,94,0.00,,,0.00,Wunderground v.1.15,2013-02-25 08:10:00,
2013-02-25 03:15:00,26.8,25.3,30.09,ENE,77,1.0,1.0,94,0.00,,,0.00,Wunderground v.1.15,2013-02-25 08:15:00,
2013-02-25 03:20:00,26.8,25.3,30.09,ENE,77,0.0,0.0,94,0.00,,,0.00,Wunderground v.1.15,2013-02-25 08:20:00,
2013-02-25 03:25:00,26.8,25.3,30.09,ENE,77,0.0,0.0,94,0.00,,,0.00,Wunderground v.1.15,2013-02-25 08:25:00,
2013-02-25 03:35:00,26.8,25.3,30.10,ENE,77,0.0,1.0,94,0.00,,,0.00,Wunderground v.1.15,2013-02-25 08:35:00,
2013-02-25 03:40:00,26.8,25.3,30.10,ENE,77,0.0,1.0,94,0.00,,,0.00,Wunderground v.1.15,2013-02-25 08:40:00,
2013-02-25 03:45:00,26.9,25.4,30.10,ENE,77,1.0,1.0,94,0.00,,,0.00,Wunderground v.1.15,2013-02-25 08:45:00,
2013-02-25 03:50:00,26.9,25.4,30.10,ENE,77,1.0,1.0,94,0.00,,,0.00,Wunderground v.1.15,2013-02-25 08:50:00,
2013-02-25 03:55:00,26.9,25.4,30.10,ENE,77,0.0,1.0,94,0.00,,,0.00,Wunderground v.1.15,2013-02-25 08:55:00,
2013-02-25 04:00:00,26.8,25.3,30.10,ENE,77,0.0,0.0,94,0.00,,,0.00,Wunderground v.1.15,2013-02-25 09:00:00,
2013-02-25 04:05:00,26.8,25.3,30.10,ENE,77,0.0,0.0,94,0.00,,,0.00,Wunderground v.1.15,2013-02-25 09:05:00,
2013-02-25 04:10:00,26.8,25.3,30.10,ENE,77,0.0,0.0,94,0.00,,,0.00,Wunderground v.1.15,2013-02-25 09:10:00,
2013-02-25 04:15:00,26.8,25.3,30.10,ENE,77,0.0,0.0,94,0.00,,,0.00,Wunderground v.1.15,2013-02-25 09:15:00,
2013-02-25 04:20:00,27.0,25.5,30.10,ENE,77,0.0,0.0,94,0.00,,,0.00,Wunderground v.1.15,2013-02-25 09:20:00,
2013-02-25 04:25:00,27.1,25.6,30.10,ENE,77,0.0,0.0,94,0.00,,,0.00,Wunderground v.1.15,2013-02-25 09:25:00,
2013-02-25 04:30:00,27.0,25.2,30.11,ENE,77,0.0,1.0,93,0.00,,,0.00,Wunderground v.1.15,2013-02-25 09:30:00,
2013-02-25 04:35:00,27.0,25.2,30.11,ENE,77,0.0,1.0,93,0.00,,,0.00,Wunderground v.1.15,2013-02-25 09:35:00,
2013-02-25 04:40:00,27.0,25.2,30.11,ENE,77,0.0,0.0,93,0.00,,,0.00,Wunderground v.1.15,2013-02-25 09:40:00,
2013-02-25 04:50:00,26.9,25.1,30.11,ENE,77,0.0,0.0,93,0.00,,,0.00,Wunderground v.1.15,2013-02-25 09:50:00,
2013-02-25 05:00:00,26.9,25.1,30.11,ENE,77,0.0,0.0,93,0.00,,,0.00,Wunderground v.1.15,2013-02-25 10:00:00,
2013-02-25 05:05:00,26.9,25.1,30.11,ENE,77,0.0,0.0,93,0.00,,,0.00,Wunderground v.1.15,2013-02-25 10:05:00,
2013-02-25 05:10:00,26.9,25.1,30.12,ENE,77,0.0,0.0,93,0.00,,,0.00,Wunderground v.1.15,2013-02-25 10:10:00,
2013-02-25 05:15:00,26.8,25.0,30.12,ENE,77,0.0,0.0,93,0.00,,,0.00,Wunderground v.1.15,2013-02-25 10:15:00,
2013-02-25 05:20:00,26.8,25.0,30.12,ENE,77,1.0,1.0,93,0.00,,,0.00,Wunderground v.1.15,2013-02-25 10:20:00,
2013-02-25 05:25:00,26.9,25.1,30.12,ENE,77,1.0,1.0,93,0.00,,,0.00,Wunderground v.1.15,2013-02-25 10:25:00,
2013-02-25 05:30:00,26.9,25.1,30.13,ENE,77,1.0,1.0,93,0.00,,,0.00,Wunderground v.1.15,2013-02-25 10:30:00,
2013-02-25 05:35:00,27.0,25.2,30.13,ENE,77,1.0,1.0,93,0.00,,,0.00,Wunderground v.1.15,2013-02-25 10:35:00,
2013-02-25 05:40:00,27.2,25.4,30.13,ENE,77,1.0,1.0,93,0.00,,,0.00,Wunderground v.1.15,2013-02-25 10:40:00,
2013-02-25 05:45:00,27.2,25.4,30.13,ENE,77,0.0,1.0,93,0.00,,,0.00,Wunderground v.1.15,2013-02-25 10:45:00,
2013-02-25 05:55:00,27.5,25.7,30.14,ENE,77,1.0,1.0,93,0.00,,,0.00,Wunderground v.1.15,2013-02-25 10:55:00,
2013-02-25 06:00:00,27.5,25.7,30.14,ENE,77,1.0,1.0,93,0.00,,,0.00,Wunderground v.1.15,2013-02-25 11:00:00,
2013-02-25 06:05:00,27.6,25.8,30.14,ENE,77,0.0,1.0,93,0.00,,,0.00,Wunderground v.1.15,2013-02-25 11:05:00,
2013-02-25 06:10:00,27.7,25.9,30.14,ENE,77,0.0,0.0,93,0.00,,,0.00,Wunderground v.1.15,2013-02-25 11:10:00,
2013-02-25 06:15:00,27.9,26.4,30.14,ENE,77,0.0,0.0,94,0.00,,,0.00,Wunderground v.1.15,2013-02-25 11:15:00,
2013-02-25 06:20:00,28.0,26.2,30.15,ENE,77,0.0,1.0,93,0.00,,,0.00,Wunderground v.1.15,2013-02-25 11:20:00,
2013-02-25 06:25:00,27.9,26.1,30.15,ENE,77,0.0,1.0,93,0.00,,,0.00,Wunderground v.1.15,2013-02-25 11:25:00,
2013-02-25 06:30:00,28.0,26.2,30.15,ENE,77,0.0,0.0,93,0.00,,,0.00,Wunderground v.1.15,2013-02-25 11:30:00,
2013-02-25 06:35:00,28.0,26.2,30.15,ENE,77,0.0,1.0,93,0.00,,,0.00,Wunderground v.1.15,2013-02-25 11:35:00,
2013-02-25 06:40:00,28.1,26.3,30.15,East,99,1.0,1.0,93,0.00,,,0.00,Wunderground v.1.15,2013-02-25 11:40:00,
2013-02-25 06:45:00,28.2,26.4,30.16,East,99,1.0,1.0,93,0.00,,,0.00,Wunderground v.1.15,2013-02-25 11:45:00,
2013-02-25 06:50:00,28.2,26.2,30.16,East,99,1.0,2.0,92,0.00,,,0.00,Wunderground v.1.15,2013-02-25 11:50:00,
2013-02-25 06:55:00,28.4,26.6,30.16,SE,134,1.0,3.0,93,0.00,,,0.00,Wunderground v.1.15,2013-02-25 11:55:00,
2013-02-25 07:00:00,28.6,26.6,30.16,SE,124,2.0,2.0,92,0.00,,,0.00,Wunderground v.1.15,2013-02-25 12:00:00,
2013-02-25 07:05:00,28.7,26.7,30.16,SE,124,1.0,2.0,92,0.00,,,0.00,Wunderground v.1.15,2013-02-25 12:05:00,
2013-02-25 07:10:00,28.7,26.7,30.17,SE,124,0.0,0.0,92,0.00,,,0.00,Wunderground v.1.15,2013-02-25 12:10:00,
2013-02-25 07:20:00,28.7,26.7,30.17,SE,124,0.0,0.0,92,0.00,,,0.00,Wunderground v.1.15,2013-02-25 12:20:00,
2013-02-25 07:25:00,29.1,27.3,30.17,SE,124,0.0,1.0,93,0.00,,,0.00,Wunderground v.1.15,2013-02-25 12:25:00,
2013-02-25 07:30:00,29.3,27.0,30.17,SE,124,1.0,1.0,91,0.00,,,0.00,Wunderground v.1.15,2013-02-25 12:30:00,
2013-02-25 07:35:00,29.4,27.4,30.17,SE,124,1.0,1.0,92,0.00,,,0.00,Wunderground v.1.15,2013-02-25 12:35:00,
2013-02-25 07:40:00,29.7,27.7,30.18,SE,124,0.0,0.0,92,0.00,,,0.00,Wunderground v.1.15,2013-02-25 12:40:00,
2013-02-25 07:50:00,29.8,27.5,30.18,SE,124,0.0,1.0,91,0.00,,,0.00,Wunderground v.1.15,2013-02-25 12:50:00,
2013-02-25 08:00:00,30.5,28.2,30.18,SE,124,1.0,1.0,91,0.00,,,0.00,Wunderground v.1.15,2013-02-25 13:00:00,
2013-02-25 08:05:00,30.8,28.5,30.18,SE,124,1.0,1.0,91,0.00,,,0.00,Wunderground v.1.15,2013-02-25 13:05:00,
2013-02-25 08:10:00,30.9,28.3,30.18,SE,124,0.0,0.0,90,0.00,,,0.00,Wunderground v.1.15,2013-02-25 13:10:00,
2013-02-25 08:15:00,31.2,28.6,30.18,SE,124,0.0,0.0,90,0.00,,,0.00,Wunderground v.1.15,2013-02-25 13:15:00,
2013-02-25 08:20:00,31.6,29.3,30.19,SE,124,0.0,0.0,91,0.00,,,0.00,Wunderground v.1.15,2013-02-25 13:20:00,
2013-02-25 08:25:00,32.5,30.4,30.19,SE,124,0.0,0.0,92,0.00,,,0.00,Wunderground v.1.15,2013-02-25 13:25:00,
2013-02-25 08:35:00,33.5,30.6,30.19,SE,124,0.0,1.0,89,0.00,,,0.00,Wunderground v.1.15,2013-02-25 13:35:00,
2013-02-25 08:45:00,33.3,29.8,30.19,SE,124,2.0,2.0,87,0.00,,,0.00,Wunderground v.1.15,2013-02-25 13:45:00,
2013-02-25 08:50:00,33.2,29.5,30.19,SE,124,2.0,2.0,86,0.00,,,0.00,Wunderground v.1.15,2013-02-25 13:50:00,
2013-02-25 08:55:00,33.2,29.5,30.19,SE,124,2.0,2.0,86,0.00,,,0.00,Wunderground v.1.15,2013-02-25 13:55:00,
2013-02-25 09:01:00,33.1,29.4,30.19,SE,124,1.0,1.0,86,0.00,,,0.00,Wunderground v.1.15,2013-02-25 14:01:00,
2013-02-25 09:05:00,33.0,29.6,30.19,SE,124,1.0,1.0,87,0.00,,,0.00,Wunderground v.1.15,2013-02-25 14:05:00,
2013-02-25 09:15:00,33.1,29.4,30.20,SE,124,1.0,1.0,86,0.00,,,0.00,Wunderground v.1.15,2013-02-25 14:15:00,
2013-02-25 10:30:00,34.2,30.4,30.21,East,101,1.0,2.0,86,0.00,,,0.01,Wunderground v.1.15,2013-02-25 15:30:00,
2013-02-25 10:40:00,34.2,30.2,30.21,SE,125,2.0,2.0,85,0.00,,,0.01,Wunderground v.1.15,2013-02-25 15:40:00,
2013-02-25 10:45:00,34.3,30.3,30.22,ESE,109,2.0,2.0,85,0.00,,,0.01,Wunderground v.1.15,2013-02-25 15:45:00,
2013-02-25 10:50:00,34.3,30.0,30.22,ENE,75,1.0,2.0,84,0.00,,,0.02,Wunderground v.1.15,2013-02-25 15:50:00,
2013-02-25 10:55:00,34.2,30.2,30.22,ENE,75,1.0,2.0,85,0.13,,,0.03,Wunderground v.1.15,2013-02-25 15:55:00,
2013-02-25 11:00:00,34.3,30.3,30.22,ENE,75,1.0,1.0,85,0.13,,,0.04,Wunderground v.1.15,2013-02-25 16:00:00,
2013-02-25 11:05:00,34.4,30.4,30.23,ESE,115,1.0,1.0,85,0.12,,,0.05,Wunderground v.1.15,2013-02-25 16:05:00,
2013-02-25 11:10:00,34.4,30.6,30.23,East,98,2.0,3.0,86,0.12,,,0.06,Wunderground v.1.15,2013-02-25 16:10:00,
2013-02-25 11:15:00,34.0,30.8,30.23,ESE,110,3.0,4.0,88,0.12,,,0.07,Wunderground v.1.15,2013-02-25 16:15:00,
2013-02-25 11:20:00,33.8,30.9,30.23,ENE,78,4.0,4.0,89,0.11,,,0.08,Wunderground v.1.15,2013-02-25 16:20:00,
2013-02-25 11:25:00,34.0,31.1,30.23,ENE,76,4.0,4.0,89,0.09,,,0.09,Wunderground v.1.15,2013-02-25 16:25:00,
2013-02-25 11:30:00,34.1,30.9,30.23,ESE,117,4.0,4.0,88,0.08,,,0.09,Wunderground v.1.15,2013-02-25 16:30:00,
2013-02-25 11:35:00,34.2,31.0,30.22,ESE,103,4.0,4.0,88,0.07,,,0.10,Wunderground v.1.15,2013-02-25 16:35:00,
2013-02-25 11:40:00,34.3,31.1,30.22,East,96,4.0,4.0,88,0.08,,,0.11,Wunderground v.1.15,2013-02-25 16:40:00,
2013-02-25 11:45:00,34.5,31.3,30.22,East,90,4.0,4.0,88,0.08,,,0.11,Wunderground v.1.15,2013-02-25 16:45:00,
2013-02-25 11:55:00,34.9,31.1,30.22,East,94,3.0,4.0,86,0.10,,,0.13,Wunderground v.1.15,2013-02-25 16:55:00,
2013-02-25 12:00:00,34.6,30.8,30.22,SE,131,4.0,4.0,86,0.09,,,0.14,Wunderground v.1.15,2013-02-25 17:00:00,
2013-02-25 12:05:00,34.5,30.7,30.22,SSE,150,4.0,4.0,86,0.09,,,0.14,Wunderground v.1.15,2013-02-25 17:05:00,
2013-02-25 12:10:00,34.7,30.9,30.22,SSE,166,4.0,4.0,86,0.07,,,0.15,Wunderground v.1.15,2013-02-25 17:10:00,
2013-02-25 12:15:00,35.0,31.2,30.22,SE,128,3.0,4.0,86,0.07,,,0.15,Wunderground v.1.15,2013-02-25 17:15:00,
2013-02-25 12:20:00,35.2,31.1,30.22,ESE,106,2.0,2.0,85,0.07,,,0.16,Wunderground v.1.15,2013-02-25 17:20:00,
2013-02-25 12:25:00,35.3,31.5,30.23,ESE,112,2.0,2.0,86,0.09,,,0.17,Wunderground v.1.15,2013-02-25 17:25:00,
2013-02-25 12:35:00,34.9,30.8,30.23,SE,131,3.0,3.0,85,0.08,,,0.18,Wunderground v.1.15,2013-02-25 17:35:00,
2013-02-25 12:40:00,34.8,30.8,30.23,SE,134,3.0,3.0,85,0.08,,,0.19,Wunderground v.1.15,2013-02-25 17:40:00,
2013-02-25 12:50:00,34.6,30.6,30.23,ESE,107,2.0,5.0,85,0.06,,,0.20,Wunderground v.1.15,2013-02-25 17:50:00,
2013-02-25 12:55:00,34.4,30.6,30.23,SSE,156,3.0,5.0,86,0.06,,,0.20,Wunderground v.1.15,2013-02-25 17:55:00,
2013-02-25 13:00:00,34.5,30.5,30.24,ESE,118,3.0,3.0,85,0.05,,,0.21,Wunderground v.1.15,2013-02-25 18:00:00,
2013-02-25 13:05:00,34.7,30.7,30.24,ESE,118,3.0,3.0,85,0.05,,,0.21,Wunderground v.1.15,2013-02-25 18:05:00,
2013-02-25 13:15:00,35.3,30.7,30.24,SE,141,3.0,5.0,83,0.04,,,0.22,Wunderground v.1.15,2013-02-25 18:15:00,
2013-02-25 13:20:00,35.6,31.2,30.24,ESE,112,3.0,3.0,84,0.08,,,0.23,Wunderground v.1.15,2013-02-25 18:20:00,
2013-02-25 13:25:00,35.6,30.9,30.24,SE,139,3.0,4.0,83,0.08,,,0.23,Wunderground v.1.15,2013-02-25 18:25:00,
2013-02-25 13:30:00,35.5,30.5,30.24,East,88,3.0,3.0,82,0.06,,,0.24,Wunderground v.1.15,2013-02-25 18:30:00,
2013-02-25 13:35:00,35.3,30.4,30.24,East,98,3.0,3.0,82,0.06,,,0.24,Wunderground v.1.15,2013-02-25 18:35:00,
2013-02-25 13:40:00,35.3,30.4,30.24,NE,53,3.0,3.0,82,0.07,,,0.25,Wunderground v.1.15,2013-02-25 18:40:00,
2013-02-25 13:45:00,35.3,30.7,30.24,ESE,106,3.0,3.0,83,0.07,,,0.25,Wunderground v.1.15,2013-02-25 18:45:00,
2013-02-25 13:50:00,35.9,31.2,30.24,East,96,2.0,2.0,83,0.05,,,0.25,Wunderground v.1.15,2013-02-25 18:50:00,
2013-02-25 13:55:00,36.3,31.3,30.25,East,88,2.0,2.0,82,0.05,,,0.26,Wunderground v.1.15,2013-02-25 18:55:00,
2013-02-25 14:00:00,36.7,31.1,30.25,East,88,1.0,2.0,80,0.07,,,0.27,Wunderground v.1.15,2013-02-25 19:00:00,
2013-02-25 14:05:00,36.8,30.6,30.25,ENE,74,1.0,2.0,78,0.07,,,0.27,Wunderground v.1.15,2013-02-25 19:05:00,
2013-02-25 14:10:00,37.4,31.5,30.25,ENE,74,2.0,2.0,79,0.07,,,0.28,Wunderground v.1.15,2013-02-25 19:10:00,
2013-02-25 14:15:00,37.4,31.2,30.25,East,96,1.0,2.0,78,0.09,,,0.29,Wunderground v.1.15,2013-02-25 19:15:00,
2013-02-25 14:20:00,37.0,30.8,30.25,East,94,2.0,3.0,78,0.09,,,0.29,Wunderground v.1.15,2013-02-25 19:20:00,
2013-02-25 14:25:00,36.5,30.6,30.25,East,93,2.0,3.0,79,0.07,,,0.30,Wunderground v.1.15,2013-02-25 19:25:00,
2013-02-25 14:30:00,36.3,30.7,30.25,East,93,2.0,2.0,80,0.07,,,0.30,Wunderground v.1.15,2013-02-25 19:30:00,
2013-02-25 14:35:00,36.7,31.4,30.26,East,93,1.0,2.0,81,0.05,,,0.30,Wunderground v.1.15,2013-02-25 19:35:00,
2013-02-25 14:45:00,37.5,30.9,30.26,WSW,240,1.0,3.0,77,0.04,,,0.31,Wunderground v.1.15,2013-02-25 19:45:00,
2013-02-25 14:50:00,37.0,30.5,30.26,NW,305,2.0,2.0,77,0.04,,,0.31,Wunderground v.1.15,2013-02-25 19:50:00,
2013-02-25 14:55:00,36.7,30.8,30.26,NW,305,1.0,2.0,79,0.00,,,0.31,Wunderground v.1.15,2013-02-25 19:55:00,
2013-02-25 15:00:00,36.6,31.0,30.27,NW,305,0.0,2.0,80,0.00,,,0.32,Wunderground v.1.15,2013-02-25 20:00:00,
2013-02-25 15:05:00,36.6,31.0,30.27,SW,214,1.0,2.0,80,0.00,,,0.32,Wunderground v.1.15,2013-02-25 20:05:00,
2013-02-25 15:10:00,36.4,31.4,30.27,SW,221,1.0,1.0,82,0.00,,,0.32,Wunderground v.1.15,2013-02-25 20:10:00,
2013-02-25 15:15:00,36.2,31.5,30.27,SW,225,2.0,3.0,83,0.00,,,0.32,Wunderground v.1.15,2013-02-25 20:15:00,
2013-02-25 15:20:00,36.1,31.7,30.27,West,264,2.0,2.0,84,0.00,,,0.32,Wunderground v.1.15,2013-02-25 20:20:00,
2013-02-25 15:25:00,35.9,31.8,30.27,SW,232,2.0,2.0,85,0.00,,,0.32,Wunderground v.1.15,2013-02-25 20:25:00,
2013-02-25 15:30:00,35.9,31.8,30.27,SSW,212,2.0,2.0,85,0.00,,,0.32,Wunderground v.1.15,2013-02-25 20:30:00,
2013-02-25 15:35:00,35.7,31.6,30.28,WSW,248,3.0,3.0,85,0.00,,,0.32,Wunderground v.1.15,2013-02-25 20:35:00,
2013-02-25 15:40:00,35.6,31.5,30.28,SW,232,3.0,4.0,85,0.00,,,0.33,Wunderground v.1.15,2013-02-25 20:40:00,
2013-02-25 15:45:00,35.5,31.7,30.28,WSW,251,3.0,4.0,86,0.00,,,0.33,Wunderground v.1.15,2013-02-25 20:45:00,
2013-02-25 15:50:00,35.4,31.6,30.28,West,261,3.0,3.0,86,0.00,,,0.33,Wunderground v.1.15,2013-02-25 20:50:00,
2013-02-25 15:55:00,35.3,31.5,30.28,SW,214,3.0,3.0,86,0.00,,,0.33,Wunderground v.1.15,2013-02-25 20:55:00,
2013-02-25 16:00:00,35.2,31.4,30.29,SW,232,2.0,3.0,86,0.00,,,0.33,Wunderground v.1.15,2013-02-25 21:00:00,
2013-02-25 16:05:00,35.2,31.4,30.28,SW,221,3.0,3.0,86,0.00,,,0.33,Wunderground v.1.15,2013-02-25 21:05:00,
2013-02-25 16:10:00,35.1,31.6,30.29,SSW,209,3.0,3.0,87,0.00,,,0.33,Wunderground v.1.15,2013-02-25 21:10:00,
2013-02-25 16:15:00,35.1,31.6,30.29,West,260,3.0,3.0,87,0.00,,,0.33,Wunderground v.1.15,2013-02-25 21:15:00,
2013-02-25 16:20:00,35.0,31.5,30.29,SW,227,3.0,3.0,87,0.00,,,0.33,Wunderground v.1.15,2013-02-25 21:20:00,
2013-02-25 16:25:00,34.9,31.4,30.29,SSW,213,3.0,4.0,87,0.00,,,0.33,Wunderground v.1.15,2013-02-25 21:25:00,
2013-02-25 16:30:00,34.9,31.7,30.29,WSW,241,3.0,3.0,88,0.00,,,0.33,Wunderground v.1.15,2013-02-25 21:30:00,
2013-02-25 16:35:00,34.8,31.6,30.29,WSW,249,2.0,3.0,88,0.00,,,0.33,Wunderground v.1.15,2013-02-25 21:35:00,
2013-02-25 16:40:00,34.8,31.6,30.30,WSW,258,1.0,2.0,88,0.00,,,0.33,Wunderground v.1.15,2013-02-25 21:40:00,
2013-02-25 16:45:00,34.7,31.8,30.29,WSW,258,1.0,2.0,89,0.00,,,0.33,Wunderground v.1.15,2013-02-25 21:45:00,
2013-02-25 16:50:00,34.7,31.8,30.30,SW,234,1.0,2.0,89,0.00,,,0.33,Wunderground v.1.15,2013-02-25 21:50:00,
2013-02-25 16:55:00,34.7,31.8,30.29,West,269,2.0,2.0,89,0.00,,,0.33,Wunderground v.1.15,2013-02-25 21:55:00,
2013-02-25 17:00:00,34.6,31.7,30.30,WSW,250,2.0,2.0,89,0.00,,,0.33,Wunderground v.1.15,2013-02-25 22:00:00,
2013-02-25 17:05:00,34.5,31.6,30.30,WSW,251,2.0,2.0,89,0.00,,,0.33,Wunderground v.1.15,2013-02-25 22:05:00,
2013-02-25 17:10:00,34.4,31.8,30.30,West,271,2.0,2.0,90,0.00,,,0.33,Wunderground v.1.15,2013-02-25 22:10:00,
2013-02-25 17:15:00,34.4,31.8,30.30,West,271,2.0,2.0,90,0.00,,,0.33,Wunderground v.1.15,2013-02-25 22:15:00,
2013-02-25 17:20:00,34.3,31.7,30.30,WSW,240,1.0,2.0,90,0.00,,,0.33,Wunderground v.1.15,2013-02-25 22:20:00,
2013-02-25 17:30:00,34.3,31.7,30.30,WSW,252,2.0,2.0,90,0.00,,,0.33,Wunderground v.1.15,2013-02-25 22:30:00,
2013-02-25 17:35:00,34.3,31.7,30.30,West,263,2.0,2.0,90,0.00,,,0.33,Wunderground v.1.15,2013-02-25 22:35:00,
2013-02-25 17:40:00,34.3,31.7,30.30,SW,236,2.0,2.0,90,0.00,,,0.33,Wunderground v.1.15,2013-02-25 22:40:00,
2013-02-25 17:45:00,34.2,31.6,30.30,SW,236,1.0,2.0,90,0.00,,,0.33,Wunderground v.1.15,2013-02-25 22:45:00,
2013-02-25 17:50:00,34.2,31.6,30.30,SW,232,1.0,1.0,90,0.00,,,0.33,Wunderground v.1.15,2013-02-25 22:50:00,
2013-02-25 17:55:00,34.2,31.6,30.30,SW,232,2.0,2.0,90,0.00,,,0.33,Wunderground v.1.15,2013-02-25 22:55:00,
2013-02-25 18:00:00,34.2,31.6,30.30,SW,232,1.0,3.0,90,0.00,,,0.33,Wunderground v.1.15,2013-02-25 23:00:00,
2013-02-25 18:05:00,34.1,31.5,30.30,SW,232,1.0,3.0,90,0.00,,,0.33,Wunderground v.1.15,2013-02-25 23:05:00,
2013-02-25 18:10:00,34.2,31.6,30.31,SW,232,2.0,3.0,90,0.00,,,0.33,Wunderground v.1.15,2013-02-25 23:10:00,
2013-02-25 18:15:00,34.4,31.2,30.31,SW,225,2.0,3.0,88,0.00,,,0.33,Wunderground v.1.15,2013-02-25 23:15:00,
2013-02-25 18:25:00,34.6,31.1,30.31,SW,233,1.0,2.0,87,0.00,,,0.33,Wunderground v.1.15,2013-02-25 23:25:00,
2013-02-25 18:30:00,34.6,31.4,30.30,SW,233,1.0,1.0,88,0.00,,,0.33,Wunderground v.1.15,2013-02-25 23:30:00,
2013-02-25 18:35:00,34.6,31.1,30.31,SW,233,1.0,1.0,87,0.00,,,0.33,Wunderground v.1.15,2013-02-25 23:35:00,
2013-02-25 18:40:00,34.6,31.1,30.31,SW,234,1.0,1.0,87,0.00,,,0.33,Wunderground v.1.15,2013-02-25 23:40:00,
2013-02-25 18:45:00,34.6,31.1,30.31,SW,234,1.0,1.0,87,0.00,,,0.33,Wunderground v.1.15,2013-02-25 23:45:00,
2013-02-25 18:50:00,34.7,31.2,30.31,SW,234,1.0,2.0,87,0.00,,,0.33,Wunderground v.1.15,2013-02-25 23:50:00,
2013-02-25 18:55:00,34.6,31.1,30.31,SW,234,1.0,2.0,87,0.00,,,0.33,Wunderground v.1.15,2013-02-25 23:55:00,
2013-02-25 19:00:00,34.6,31.1,30.31,SW,234,1.0,1.0,87,0.00,,,0.33,Wunderground v.1.15,2013-02-26 00:00:00,
2013-02-25 19:05:00,34.5,31.0,30.31,SW,234,1.0,1.0,87,0.00,,,0.33,Wunderground v.1.15,2013-02-26 00:05:00,
2013-02-25 19:10:00,34.5,31.0,30.31,SW,234,1.0,1.0,87,0.00,,,0.33,Wunderground v.1.15,2013-02-26 00:10:00,
2013-02-25 19:15:00,34.5,31.0,30.32,SW,234,1.0,1.0,87,0.00,,,0.33,Wunderground v.1.15,2013-02-26 00:15:00,
2013-02-25 19:20:00,34.5,31.0,30.32,SW,234,0.0,1.0,87,0.00,,,0.33,Wunderground v.1.15,2013-02-26 00:20:00,
2013-02-25 19:25:00,34.6,30.8,30.32,SW,234,0.0,2.0,86,0.00,,,0.33,Wunderground v.1.15,2013-02-26 00:25:00,
2013-02-25 19:30:00,34.6,31.1,30.32,SW,234,1.0,1.0,87,0.00,,,0.33,Wunderground v.1.15,2013-02-26 00:30:00,
2013-02-25 19:35:00,34.6,31.1,30.32,SW,234,0.0,1.0,87,0.00,,,0.33,Wunderground v.1.15,2013-02-26 00:35:00,
2013-02-25 19:40:00,34.6,31.1,30.32,SW,234,0.0,0.0,87,0.00,,,0.33,Wunderground v.1.15,2013-02-26 00:40:00,
2013-02-25 19:45:00,34.5,31.3,30.32,SW,234,0.0,0.0,88,0.00,,,0.33,Wunderground v.1.15,2013-02-26 00:45:00,
2013-02-25 19:50:00,34.3,31.4,30.32,SW,234,0.0,0.0,89,0.00,,,0.33,Wunderground v.1.15,2013-02-26 00:50:00,
2013-02-25 20:00:00,33.9,31.3,30.33,SW,234,0.0,0.0,90,0.00,,,0.33,Wunderground v.1.15,2013-02-26 01:00:00,
2013-02-25 20:05:00,33.8,31.2,30.33,SW,234,0.0,0.0,90,0.00,,,0.33,Wunderground v.1.15,2013-02-26 01:05:00,
2013-02-25 20:10:00,33.7,31.4,30.33,SW,234,0.0,0.0,91,0.00,,,0.33,Wunderground v.1.15,2013-02-26 01:10:00,
2013-02-25 20:15:00,33.5,31.2,30.34,SW,234,0.0,0.0,91,0.00,,,0.33,Wunderground v.1.15,2013-02-26 01:15:00,
2013-02-25 20:25:00,33.5,31.2,30.34,SW,215,1.0,2.0,91,0.00,,,0.33,Wunderground v.1.15,2013-02-26 01:25:00,
2013-02-25 20:30:00,33.5,31.2,30.34,SW,215,1.0,1.0,91,0.00,,,0.33,Wunderground v.1.15,2013-02-26 01:30:00,
2013-02-25 20:35:00,33.5,31.2,30.34,SW,215,1.0,1.0,91,0.00,,,0.33,Wunderground v.1.15,2013-02-26 01:35:00,
2013-02-25 20:40:00,33.5,31.2,30.34,SW,215,1.0,2.0,91,0.00,,,0.33,Wunderground v.1.15,2013-02-26 01:40:00,
2013-02-25 20:45:00,33.5,30.9,30.34,SW,215,1.0,2.0,90,0.00,,,0.33,Wunderground v.1.15,2013-02-26 01:45:00,
2013-02-25 20:50:00,33.5,30.9,30.34,SW,215,1.0,1.0,90,0.00,,,0.33,Wunderground v.1.15,2013-02-26 01:50:00,
2013-02-25 20:55:00,33.4,30.8,30.34,SW,215,1.0,1.0,90,0.00,,,0.33,Wunderground v.1.15,2013-02-26 01:55:00,
2013-02-25 21:00:00,33.3,30.7,30.34,SW,215,1.0,2.0,90,0.00,,,0.33,Wunderground v.1.15,2013-02-26 02:00:00,
2013-02-25 21:05:00,33.3,30.7,30.34,SW,215,1.0,2.0,90,0.00,,,0.33,Wunderground v.1.15,2013-02-26 02:05:00,
2013-02-25 21:15:00,33.3,30.7,30.34,SW,215,0.0,0.0,90,0.00,,,0.33,Wunderground v.1.15,2013-02-26 02:15:00,
2013-02-25 21:20:00,33.3,30.7,30.34,SW,215,0.0,0.0,90,0.00,,,0.33,Wunderground v.1.15,2013-02-26 02:20:00,
2013-02-25 21:25:00,33.2,30.6,30.34,SW,215,0.0,1.0,90,0.00,,,0.33,Wunderground v.1.15,2013-02-26 02:25:00,
2013-02-25 21:30:00,33.1,30.5,30.34,SW,215,1.0,1.0,90,0.00,,,0.33,Wunderground v.1.15,2013-02-26 02:30:00,
2013-02-25 21:35:00,33.0,30.4,30.34,SW,215,0.0,1.0,90,0.00,,,0.33,Wunderground v.1.15,2013-02-26 02:35:00,
2013-02-25 21:40:00,32.9,30.3,30.34,SW,215,1.0,1.0,90,0.00,,,0.33,Wunderground v.1.15,2013-02-26 02:40:00,
2013-02-25 21:50:00,32.6,30.3,30.34,SW,215,1.0,1.0,91,0.00,,,0.33,Wunderground v.1.15,2013-02-26 02:50:00,
2013-02-25 21:55:00,32.5,30.2,30.35,SW,215,0.0,1.0,91,0.00,,,0.33,Wunderground v.1.15,2013-02-26 02:55:00,
2013-02-25 22:00:00,32.6,30.3,30.35,SSW,200,1.0,1.0,91,0.00,,,0.33,Wunderground v.1.15,2013-02-26 03:00:00,
2013-02-25 22:10:00,32.6,30.3,30.35,SSW,200,0.0,0.0,91,0.00,,,0.33,Wunderground v.1.15,2013-02-26 03:10:00,
2013-02-25 22:15:00,32.7,30.4,30.35,SSW,200,1.0,1.0,91,0.00,,,0.33,Wunderground v.1.15,2013-02-26 03:15:00,
2013-02-25 22:20:00,32.8,30.5,30.35,SE,129,1.0,1.0,91,0.00,,,0.33,Wunderground v.1.15,2013-02-26 03:20:00,
2013-02-25 22:25:00,33.0,30.7,30.34,SE,129,1.0,1.0,91,0.00,,,0.33,Wunderground v.1.15,2013-02-26 03:25:00,
2013-02-25 22:30:00,33.0,30.4,30.34,SE,129,1.0,1.0,90,0.00,,,0.33,Wunderground v.1.15,2013-02-26 03:30:00,
2013-02-25 22:35:00,33.0,30.4,30.35,SE,129,1.0,1.0,90,0.00,,,0.33,Wunderground v.1.15,2013-02-26 03:35:00,
2013-02-25 22:45:00,32.8,30.2,30.35,SE,129,0.0,0.0,90,0.00,,,0.33,Wunderground v.1.15,2013-02-26 03:45:00,
2013-02-25 22:50:00,32.6,30.3,30.35,SE,129,0.0,0.0,91,0.00,,,0.33,Wunderground v.1.15,2013-02-26 03:50:00,
2013-02-25 22:55:00,32.5,30.2,30.35,SE,129,0.0,0.0,91,0.00,,,0.33,Wunderground v.1.15,2013-02-26 03:55:00,
2013-02-25 23:00:00,32.5,30.4,30.35,SE,129,0.0,0.0,92,0.00,,,0.33,Wunderground v.1.15,2013-02-26 04:00:00,
2013-02-25 23:05:00,32.4,30.3,30.35,SE,129,0.0,0.0,92,0.00,,,0.33,Wunderground v.1.15,2013-02-26 04:05:00,
2013-02-25 23:10:00,32.3,30.0,30.35,SE,129,0.0,0.0,91,0.00,,,0.33,Wunderground v.1.15,2013-02-26 04:10:00,
2013-02-25 23:15:00,32.1,30.0,30.35,SE,129,0.0,0.0,92,0.00,,,0.33,Wunderground v.1.15,2013-02-26 04:15:00,
2013-02-25 23:20:00,31.9,29.8,30.36,SE,129,0.0,0.0,92,0.00,,,0.33,Wunderground v.1.15,2013-02-26 04:20:00,
2013-02-25 23:30:00,31.7,29.9,30.36,SE,129,0.0,1.0,93,0.00,,,0.33,Wunderground v.1.15,2013-02-26 04:30:00,
2013-02-25 23:35:00,31.7,29.9,30.37,SE,129,0.0,1.0,93,0.00,,,0.33,Wunderground v.1.15,2013-02-26 04:35:00,
2013-02-25 23:40:00,31.7,29.9,30.37,SE,129,0.0,1.0,93,0.00,,,0.33,Wunderground v.1.15,2013-02-26 04:40:00,
2013-02-25 23:45:00,31.7,29.9,30.37,SE,129,1.0,1.0,93,0.00,,,0.33,Wunderground v.1.15,2013-02-26 04:45:00,
2013-02-25 23:50:00,31.7,29.9,30.37,SE,129,0.0,0.0,93,0.00,,,0.33,Wunderground v.1.15,2013-02-26 04:50:00,
2013-02-25 23:55:00,31.7,29.9,30.37,SE,129,0.0,0.0,93,0.00,,,0.33,Wunderground v.1.15,2013-02-26 04:55:00,